Theta_e
324 323 323 323 323 323 322 322 323 323 322 323 323 323 323 322 322 323 323 323 323 324 324 324 324 324 325 326 326 325 322 309 310 306 303 303 315 332 332 336 334 334 326 300 301 301 298 296 300 297 300 298 300 300 300 300 297 298 291 286 287 283 285 287 288 289 288 290 290 289 290 292 291 293 296 295 294 291 293 299 294 303 306 310 313 309 309 316
323 323 323 323 323 322 322 322 322 322 322 322 322 322 322 322 321 322 323 322 323 323 324 324 324 324 325 325 325 324 316 311 305 304 305 315 332 334 335 333 335 333 315 301 299 295 296 296 296 296 299 298 300 300 301 300 298 290 286 287 289 285 289 291 288 289 291 291 290 291 289 292 292 292 294 294 292 293 295 296 294 301 302 306 308 311 315 319
323 322 323 323 322 322 322 322 322 322 321 321 321 321 321 321 321 321 321 322 322 322 323 324 324 324 325 324 324 323 309 304 302 302 305 333 333 336 334 334 334 330 303 300 294 295 297 296 295 296 294 296 295 299 296 297 298 292 293 290 284 290 288 288 288 290 290 291 292 291 290 290 292 293 294 294 290 291 293 292 294 296 298 303 310 311 316 319
322 322 323 322 321 322 321 322 322 321 321 321 321 320 320 319 320 320 321 321 322 322 322 323 324 324 323 324 324 310 304 299 295 297 306 334 331 335 335 334 333 317 304 299 296 295 294 295 293 296 295 293 292 295 296 296 297 294 290 287 291 288 292 292 288 288 287 290 291 290 288 291 291 291 293 290 292 291 291 290 297 296 296 306 311 312 316 318
322 322 322 321 321 321 321 321 321 321 320 320 319 319 319 319 319 320 320 321 321 322 322 322 323 324 324 324 322 308 299 291 292 300 309 330 334 333 334 336 326 310 307 299 299 295 294 294 293 291 294 292 292 294 292 293 294 293 293 289 290 288 292 292 288 289 289 288 290 287 292 292 291 292 289 292 291 289 294 297 294 297 297 310 312 314 315 317
322 321 321 321 321 321 320 320 321 320 320 319 319 319 318 319 319 319 320 321 321 321 322 322 323 323 324 322 311 304 295 284 297 306 322 333 332 334 334 332 323 304 303 299 297 296 298 295 297 296 289 293 293 292 292 292 293 294 290 289 287 288 293 290 290 289 287 289 289 289 291 291 291 292 287 290 293 291 291 292 293 294 302 311 314 315 316 316
321 321 320 320 320 320 320 320 321 320 319 319 318 318 319 319 319 319 320 320 321 321 321 322 323 323 323 318 307 305 296 292 305 309 328 330 333 333 332 325 316 302 300 300 298 298 291 292 293 289 287 288 289 291 292 294 289 289 292 289 292 288 293 288 290 288 287 290 290 290 290 292 290 293 289 289 293 292 291 289 288 291 309 313 314 315 317 318
321 321 320 319 320 320 320 320 320 319 318 318 318 318 318 319 319 319 319 320 320 320 321 321 322 323 320 305 300 297 297 296 305 310 325 326 326 327 316 305 303 302 300 300 297 294 293 293 294 290 288 290 290 292 292 294 292 292 292 290 291 289 290 288 286 286 287 288 289 289 291 291 288 290 289 289 293 293 291 293 297 305 309 309 313 314 315 316
320 320 319 319 319 320 320 320 319 319 318 318 318 318 318 319 319 319 318 319 320 320 320 321 322 322 319 300 294 293 294 301 309 313 311 308 310 308 307 307 302 301 298 298 296 296 298 293 290 292 293 289 291 291 290 293 291 289 292 289 289 291 288 289 289 286 287 290 288 291 289 289 288 289 291 292 291 290 293 299 303 306 308 309 312 314 314 315
320 320 319 319 319 319 320 320 319 318 318 319 318 318 318 318 318 318 318 319 319 320 321 322 322 320 305 298 294 289 296 309 312 308 305 305 307 308 306 304 302 301 301 298 295 295 297 293 294 293 291 290 290 292 290 292 290 288 289 289 290 290 290 290 291 289 288 290 288 291 289 290 290 290 288 291 288 289 295 298 300 306 307 309 309 312 313 314
319 320 319 319 319 319 320 320 319 317 318 318 318 318 318 318 318 318 318 318 319 320 320 321 320 316 304 297 291 289 305 310 309 307 305 305 306 306 306 303 302 302 300 299 298 294 296 294 294 295 297 293 292 290 290 293 290 290 291 289 290 286 290 288 290 290 289 293 287 291 290 290 289 290 289 289 289 290 294 296 300 300 304 307 308 310 311 312
319 319 319 319 319 319 318 318 317 317 318 317 317 317 317 317 317 317 318 318 317 320 320 320 318 306 296 295 291 292 302 310 308 306 306 306 306 307 305 303 304 303 301 298 300 299 295 294 296 296 291 294 291 291 292 291 291 290 292 291 288 285 293 289 292 290 289 293 291 289 291 289 290 289 289 287 287 292 292 293 297 298 299 301 304 306 308 312
319 319 319 319 319 318 317 317 317 317 317 316 316 317 317 317 317 317 317 318 318 320 320 320 314 309 299 293 294 300 306 308 309 306 306 306 305 304 305 304 304 300 300 300 299 301 296 296 295 295 295 291 289 289 291 290 288 291 289 285 287 283 286 290 288 290 291 292 289 290 284 282 284 290 291 290 285 290 292 291 291 294 294 295 298 305 307 307
318 318 318 318 318 317 317 316 316 316 316 315 316 317 317 317 316 316 317 317 319 320 321 318 311 302 295 289 300 308 309 309 309 306 305 307 305 305 303 303 303 302 303 301 301 299 299 294 295 294 294 293 293 297 292 287 288 290 289 285 283 285 283 288 289 288 291 291 289 289 283 281 282 287 284 285 286 290 290 289 289 290 290 290 292 297 304 307
318 318 318 317 317 317 316 316 316 315 315 315 316 316 316 316 317 317 317 317 320 321 321 317 306 298 292 293 304 309 321 308 307 306 306 304 302 303 303 303 302 301 301 303 302 300 298 299 298 293 294 292 294 292 285 283 283 282 286 283 279 282 281 283 288 288 290 292 287 288 282 285 286 285 286 288 286 287 290 289 288 287 289 290 289 291 295 301
317 318 318 317 317 316 316 316 315 315 315 315 316 316 316 317 317 318 318 318 319 320 313 309 305 294 290 290 305 316 306 302 303 305 307 304 303 304 301 301 303 302 301 301 300 299 298 298 294 292 293 292 289 286 284 285 283 281 284 281 283 281 279 285 290 287 289 290 289 288 283 281 288 288 284 285 287 287 288 287 286 287 287 288 290 291 292 293
317 317 317 316 316 316 316 316 315 314 315 315 316 316 316 317 318 320 320 318 315 316 313 305 307 300 291 298 304 303 300 302 306 307 305 304 305 302 302 301 300 300 299 299 299 299 296 295 293 291 289 289 284 287 284 281 278 286 281 281 279 282 281 283 285 288 287 289 289 287 287 283 286 286 285 286 289 289 289 288 288 288 288 289 289 290 292 292
317 317 316 316 316 316 315 314 314 314 315 315 315 315 315 318 320 318 317 312 311 311 309 306 302 295 292 299 296 298 301 304 306 304 303 304 301 300 299 298 298 297 299 299 297 296 295 293 290 290 287 288 288 286 284 281 285 281 284 282 283 280 280 281 284 288 288 287 288 286 287 289 291 292 292 290 288 289 290 291 290 290 290 290 290 290 291 292
317 316 316 316 315 314 314 313 314 314 314 315 316 318 319 319 311 308 306 304 295 293 293 295 292 286 285 292 298 303 304 305 304 304 305 305 304 301 300 299 298 299 294 291 293 294 291 291 291 288 287 285 288 288 287 283 284 285 286 283 279 282 282 282 282 283 288 287 288 285 287 288 289 290 292 291 287 288 289 287 288 289 290 291 291 291 291 292
317 316 316 315 314 314 313 313 314 314 315 313 313 310 299 297 299 297 302 301 293 291 293 295 293 293 297 297 301 304 306 303 302 300 305 304 303 301 298 297 296 293 291 291 293 293 290 288 287 287 289 289 288 287 285 282 286 284 282 279 281 281 281 282 283 287 285 288 286 285 285 285 288 290 292 293 289 288 288 289 290 290 290 291 291 292 293 293
317 316 316 315 315 314 313 313 315 315 315 309 309 296 289 292 289 288 295 297 296 295 295 296 295 297 297 300 301 301 300 298 300 301 304 308 304 301 295 295 293 291 289 289 292 292 291 287 286 288 289 289 286 284 285 285 283 285 282 282 281 282 284 285 288 286 286 288 284 281 284 286 287 289 290 291 287 289 291 291 290 291 290 290 290 291 292 293
317 316 315 315 314 314 313 313 314 315 314 309 306 293 292 293 296 296 295 290 294 298 297 296 298 300 301 301 302 301 298 295 299 301 305 304 301 297 293 292 288 290 289 289 290 290 287 287 289 288 285 285 283 283 283 284 283 281 283 280 282 282 281 284 285 285 286 288 283 281 285 289 290 291 291 290 291 290 289 289 290 290 291 290 290 290 291 291
316 316 315 314 314 314 313 314 314 315 310 306 302 299 297 302 302 301 296 292 291 297 297 297 296 298 299 301 303 302 295 292 293 298 302 303 298 296 293 291 289 288 289 290 289 285 285 286 288 285 286 288 284 283 285 283 282 282 281 283 282 282 285 284 284 285 285 285 286 284 285 289 289 286 287 288 289 289 288 288 289 289 290 291 292 291 291 291
316 315 315 314 314 313 314 314 316 311 307 306 299 297 302 300 301 301 294 290 290 295 298 297 298 297 297 300 303 297 294 293 295 297 301 301 297 296 294 289 288 288 289 287 289 289 285 286 286 286 286 289 286 284 285 285 285 282 281 280 281 284 282 282 285 284 281 285 283 283 285 285 280 281 281 285 282 282 285 283 285 288 289 290 290 290 291 291
315 315 315 314 313 314 315 316 309 307 307 304 302 302 299 300 301 298 292 288 289 292 298 298 300 300 301 306 304 299 293 297 299 300 301 300 294 294 293 290 290 288 288 285 287 287 286 286 285 286 285 284 285 283 283 286 282 285 282 283 283 282 284 284 283 284 278 282 281 282 280 276 278 280 281 282 282 286 284 284 287 287 284 285 287 290 290 290
315 315 315 315 315 315 316 307 307 306 304 301 301 302 301 301 300 298 291 284 284 288 295 292 301 295 306 299 300 297 298 293 297 299 303 299 300 295 293 291 289 288 284 286 288 284 284 287 286 287 287 285 285 284 283 285 281 283 286 284 282 283 284 282 282 281 279 279 282 280 280 274 278 281 283 281 281 285 286 283 286 285 286 284 286 288 287 288
316 315 315 315 315 316 307 300 306 305 300 300 303 303 301 301 300 296 290 280 280 289 288 295 295 295 301 298 300 295 287 287 301 299 300 301 299 299 293 288 288 287 286 287 286 286 287 286 285 286 286 285 284 283 285 286 284 285 283 281 283 285 284 282 281 282 279 279 282 278 275 278 278 283 281 280 282 285 285 286 286 286 285 287 287 287 286 286
316 315 315 315 315 315 307 304 303 301 298 301 303 304 300 299 295 292 285 274 274 292 288 289 294 300 301 297 295 291 290 295 293 296 299 300 298 293 290 287 289 289 287 286 282 285 287 286 285 285 284 284 286 283 284 285 283 283 283 282 282 283 281 279 280 279 279 281 280 276 283 279 276 280 281 280 285 283 285 285 284 286 288 288 288 290 288 285
315 315 315 315 315 316 312 306 303 299 299 300 302 304 302 295 291 288 280 273 286 285 300 291 303 300 296 297 293 291 293 293 289 293 297 298 299 295 289 287 287 287 286 287 285 286 288 288 287 288 287 285 284 284 283 286 287 285 282 283 282 281 281 280 277 280 279 278 271 278 280 275 277 278 279 279 283 283 284 283 285 286 287 288 290 291 291 290
315 315 315 315 315 313 313 308 302 301 300 302 302 299 297 293 290 283 276 270 289 283 291 293 294 291 292 292 289 290 292 291 293 295 295 295 296 293 291 290 290 289 288 287 285 285 288 289 290 287 287 285 285 284 284 283 286 286 283 286 283 280 279 277 277 275 275 271 274 276 276 278 276 279 281 283 283 282 280 283 286 286 287 288 288 289 289 290
316 316 315 316 309 311 313 305 307 304 303 300 299 298 294 288 281 276 270 280 288 287 289 289 288 294 291 290 287 287 290 289 294 294 292 294 292 291 291 291 290 284 284 282 285 284 287 288 289 287 286 284 285 286 285 284 283 285 283 280 284 281 277 277 271 274 272 267 271 275 277 277 275 275 281 282 281 280 285 289 289 288 289 289 289 289 289 289
316 316 316 314 314 315 308 303 307 306 305 302 299 295 292 280 281 277 274 288 283 284 284 284 285 290 292 291 287 288 290 290 291 291 292 288 288 289 289 287 287 280 280 282 282 284 286 288 286 289 288 288 286 288 286 286 282 284 282 284 277 271 269 274 267 273 271 267 278 276 277 278 278 280 284 285 285 284 282 285 287 290 289 289 289 289 288 288
315 315 316 315 315 312 311 309 308 307 305 301 296 290 285 279 273 281 279 282 280 285 284 287 285 289 291 289 287 288 288 289 290 290 289 289 289 288 288 288 287 285 281 282 283 283 283 282 286 289 289 289 289 287 284 285 283 282 285 279 274 270 267 265 259 261 266 271 275 278 277 277 278 280 286 289 289 285 285 284 284 285 286 287 288 288 287 288
315 315 312 314 314 314 312 309 307 307 304 297 293 287 280 274 276 289 282 280 283 284 285 284 287 287 290 288 287 291 288 287 290 289 290 287 287 286 288 288 286 285 282 281 284 283 278 279 286 289 286 288 289 288 290 287 285 285 282 284 280 269 266 265 263 271 271 271 273 274 274 273 276 282 286 284 285 284 283 284 283 282 283 285 285 284 284 285
315 314 314 313 313 310 310 308 307 306 301 294 289 285 279 278 280 279 281 281 282 283 285 288 288 287 286 283 288 290 287 286 288 289 287 287 285 286 287 289 286 283 285 285 282 281 284 280 283 286 287 289 290 288 287 286 285 282 279 281 278 277 274 270 266 265 263 269 270 272 275 276 281 284 284 284 283 285 284 284 284 286 284 282 284 285 287 288
313 312 314 311 312 311 310 309 305 303 298 291 286 280 280 282 274 280 282 286 285 284 284 286 284 286 283 284 286 288 290 288 288 287 286 287 287 287 287 288 288 288 288 286 283 280 281 281 285 285 286 288 288 287 288 287 284 284 282 278 279 279 279 270 268 270 270 267 271 269 276 280 280 284 285 280 283 285 281 284 285 284 281 282 287 286 287 289
308 311 308 310 311 311 310 309 306 301 295 289 285 280 283 282 283 282 291 287 286 289 286 283 283 284 282 282 285 287 287 290 287 285 284 286 286 286 287 288 289 288 289 288 283 283 283 280 285 286 287 288 287 286 285 284 285 283 279 280 281 280 279 276 272 264 261 268 271 271 275 276 275 279 281 281 286 285 283 285 281 282 284 287 289 289 290 291
304 306 308 308 311 311 311 309 306 300 292 288 283 288 282 284 287 288 289 286 287 287 284 284 283 285 283 283 283 286 286 287 286 285 284 287 284 289 288 287 288 291 291 287 287 286 285 281 284 284 285 287 286 289 288 287 286 283 280 284 284 278 276 276 271 268 266 265 266 269 272 273 276 280 279 282 284 285 284 284 284 286 286 289 291 293 292 291
304 304 300 305 310 311 309 309 304 298 290 284 283 285 287 284 288 285 287 288 288 286 285 283 283 284 284 283 284 286 288 284 286 285 284 283 283 286 290 290 287 289 290 287 287 284 286 281 280 285 285 287 287 286 284 284 286 285 285 283 284 279 275 273 275 269 272 266 263 268 267 276 277 278 280 285 282 285 283 283 284 285 287 289 291 292 292 292
300 298 295 307 310 311 310 308 301 296 288 283 284 279 286 287 289 287 287 288 287 285 285 285 284 283 283 284 286 285 286 285 286 285 285 285 286 287 288 291 289 288 289 287 286 288 284 281 276 283 286 286 284 284 284 286 282 281 281 281 284 279 281 279 276 273 274 263 262 265 269 272 277 279 281 285 283 281 282 285 284 287 288 289 290 292 292 291
299 296 296 308 309 309 308 304 296 290 288 284 285 284 286 287 288 288 289 289 289 290 285 285 285 284 282 283 284 286 284 284 286 285 285 285 287 283 288 291 289 288 287 288 287 287 284 281 279 281 282 282 282 284 284 286 287 286 286 283 286 280 277 275 277 276 266 271 268 262 273 270 279 280 284 282 282 282 282 285 288 286 287 287 290 291 289 291
295 287 293 308 310 309 302 295 293 292 285 283 285 286 287 295 287 289 289 289 288 288 291 286 285 284 283 286 285 285 285 283 284 285 285 285 288 286 288 290 289 291 291 286 287 287 286 282 282 277 282 285 286 286 283 284 285 285 285 284 286 284 280 273 273 273 271 274 269 266 269 275 282 281 281 281 281 281 282 285 288 287 287 288 290 288 287 288
293 290 303 305 307 305 298 290 291 289 285 285 290 289 289 288 288 288 289 289 288 289 288 287 287 286 285 285 285 285 287 284 285 285 285 287 286 288 287 288 291 292 293 287 288 286 290 282 280 279 279 281 284 284 285 285 287 287 285 281 283 284 283 280 273 274 279 271 272 269 267 275 278 280 281 281 280 279 283 285 290 289 289 288 289 289 287 286
292 293 298 304 306 304 294 286 287 288 288 290 288 288 289 290 289 289 288 289 287 289 288 288 289 291 286 285 285 285 287 282 284 285 284 285 287 288 287 288 292 291 292 289 290 291 284 283 284 274 273 277 279 284 283 284 286 281 282 282 284 282 278 277 275 274 274 275 276 275 273 275 281 281 283 283 285 285 287 286 287 291 288 288 287 286 285 286
290 292 294 297 304 301 288 289 287 287 286 287 286 285 287 288 290 291 289 290 288 287 288 288 288 288 288 287 286 287 288 287 281 286 285 282 287 288 289 287 291 291 290 293 295 293 287 283 283 277 276 275 274 275 279 282 284 282 279 281 283 284 280 280 278 274 274 273 277 272 276 277 279 282 285 285 285 287 287 287 285 286 287 287 288 287 286 287
287 283 290 293 298 296 295 295 292 288 287 287 286 284 286 286 289 290 292 291 291 291 290 288 289 289 286 287 285 285 286 286 284 282 285 284 284 287 287 286 287 290 292 294 292 292 281 282 284 285 283 281 283 283 284 285 282 282 282 283 283 284 283 283 279 275 278 277 275 279 282 281 281 283 284 286 283 288 289 287 288 288 286 285 285 286 287 287
288 283 285 284 292 293 288 292 288 291 286 291 286 288 284 285 287 290 292 289 292 291 291 290 289 288 287 287 286 285 286 287 284 284 284 285 283 286 286 286 288 289 294 292 291 286 280 283 284 284 284 285 283 281 283 288 284 285 283 282 284 284 283 284 282 282 284 276 275 281 282 281 284 281 283 285 285 285 288 289 288 286 285 288 289 286 288 286
283 285 287 290 287 285 285 285 288 287 290 292 288 291 288 286 286 285 291 292 292 293 290 290 291 289 289 288 287 283 285 285 286 284 284 282 285 287 287 288 288 289 290 289 289 287 283 282 284 282 283 283 281 281 283 286 286 286 286 284 283 284 283 283 284 286 283 281 281 284 282 282 285 285 287 287 288 289 289 290 289 287 287 286 287 288 286 286
286 285 285 289 286 286 288 290 289 288 287 290 288 290 288 288 287 289 290 289 290 291 291 285 287 287 286 287 287 284 285 283 283 284 282 282 283 284 284 287 288 286 289 287 287 283 286 279 281 282 283 283 281 281 282 285 283 283 284 285 285 284 284 285 286 287 285 284 286 285 282 284 288 286 288 289 289 289 288 286 286 287 288 289 286 286 285 286
283 283 283 285 285 283 285 290 290 288 285 289 285 287 289 289 288 290 290 289 286 287 291 288 286 286 287 287 285 284 285 287 286 285 285 286 283 284 285 284 284 286 287 287 287 286 286 280 285 281 278 280 281 280 281 282 283 282 281 283 284 285 285 286 287 287 286 285 285 284 281 282 286 285 288 288 286 286 288 288 288 287 287 286 287 286 285 286
287 287 288 284 283 283 284 286 289 287 286 287 286 288 288 289 289 292 291 293 290 288 290 289 287 288 288 288 287 286 287 289 290 289 289 290 287 288 288 287 288 286 285 285 285 287 285 279 281 279 278 275 279 281 281 279 281 280 280 281 283 283 282 284 284 286 284 283 285 284 283 284 288 286 288 287 285 288 289 290 288 288 286 285 287 285 285 286
287 288 288 285 280 286 282 283 288 288 284 288 288 288 288 288 290 292 288 293 294 295 294 291 291 291 287 288 289 290 290 291 293 292 292 293 293 291 292 292 291 288 286 287 284 284 284 283 281 277 277 277 278 280 279 278 278 275 279 283 284 285 286 287 287 286 287 289 285 282 284 291 287 288 287 286 288 288 288 288 287 287 285 284 286 287 287 285
Wind_Speed
17 17 17 15 16 15 14 13 13 14 14 13 13 12 11 10 9 9 9 8 8 7 5 4 3 1 2 3 4 3 2 3 2 1 2 6 3 4 4 7 8 8 5 4 4 4 1 2 2 4 3 4 3 2 1 3 1 1 2 5 1 2 2 5 6 8 1 3 4 4 6 5 2 0 1 1 4 2 1 0 3 1 3 2 3 3 3 4
18 17 17 16 15 14 14 13 13 13 13 13 11 11 10 9 9 9 8 7 5 5 4 3 3 2 3 3 3 4 4 3 1 2 12 2 7 5 4 5 7 6 6 3 5 4 5 0 1 3 3 2 2 0 1 0 1 3 2 3 5 4 3 6 4 5 2 3 5 3 3 2 5 6 2 2 1 1 1 2 1 2 3 1 2 1 6 8
18 16 15 15 14 14 14 14 13 13 12 12 11 10 10 9 7 7 5 6 5 3 3 3 3 4 3 2 3 4 3 2 1 4 10 7 6 6 4 5 5 5 2 3 4 7 5 6 4 4 3 3 6 1 2 0 1 1 4 2 2 8 3 4 4 4 3 2 6 5 3 1 1 1 1 2 3 0 6 4 2 3 5 4 2 3 7 8
18 15 14 15 14 14 14 13 13 13 11 11 11 10 7 5 6 6 5 5 5 4 3 2 3 4 3 3 6 3 3 2 2 3 1 6 7 7 5 4 5 5 5 6 6 5 5 8 5 4 1 5 3 1 1 1 0 1 3 3 2 3 1 2 6 3 4 3 3 4 2 1 1 2 2 3 4 3 6 6 8 10 9 6 4 5 7 9
17 16 15 14 14 14 14 14 13 11 11 9 7 7 5 6 6 6 5 5 5 4 3 3 3 4 4 6 6 3 4 2 4 0 1 6 7 8 6 5 4 3 3 8 9 6 7 5 3 3 3 0 2 2 0 1 0 3 1 1 1 1 0 0 3 2 2 3 6 3 7 4 1 1 2 7 6 7 8 9 10 8 6 10 10 8 6 9
16 16 16 14 14 15 14 14 14 12 10 8 6 6 6 7 6 6 6 5 4 4 4 3 4 5 6 7 5 3 2 3 0 0 1 4 6 8 7 7 4 6 8 5 4 3 6 3 5 1 1 2 1 4 1 0 1 3 1 0 3 2 1 1 1 2 4 4 6 6 4 3 3 1 1 5 8 4 5 1 4 5 4 4 7 11 9 9
16 15 15 14 14 14 15 14 13 12 11 10 9 8 8 7 7 6 5 4 4 3 3 3 5 6 6 8 3 2 2 3 0 2 1 3 5 7 9 8 7 4 4 5 4 3 2 4 4 3 4 3 0 1 0 0 2 3 2 0 0 3 1 1 1 1 1 7 5 3 1 2 2 4 1 3 9 4 1 1 2 3 5 7 11 11 15 16
16 15 15 14 13 13 15 14 14 12 11 10 10 9 7 7 6 5 4 4 2 2 2 3 6 6 6 3 3 0 0 3 2 2 2 5 6 8 9 5 6 3 4 7 7 5 5 6 6 2 3 6 3 4 0 3 3 2 1 1 1 1 1 2 1 3 1 1 1 3 5 0 3 1 1 6 11 7 4 2 3 5 6 5 8 12 9 10
15 14 14 14 13 12 13 14 14 13 12 12 11 8 7 7 5 4 3 3 2 0 1 4 6 7 4 3 3 3 4 0 2 1 3 6 5 6 3 2 2 4 3 2 1 8 7 3 3 5 3 2 2 4 1 5 3 2 1 3 1 1 3 2 1 4 3 1 1 3 1 2 2 2 3 9 7 3 1 3 4 5 6 7 10 12 11 11
15 14 15 14 13 12 12 12 13 13 11 12 10 8 7 6 5 3 2 3 1 1 2 4 6 5 4 2 2 3 2 1 1 2 4 7 6 7 8 5 5 6 5 0 4 5 3 5 7 6 8 4 3 1 1 2 2 3 4 3 4 1 1 4 2 2 2 1 1 2 1 0 1 2 6 1 3 3 2 3 2 7 8 8 6 8 8 10
14 14 14 14 12 12 10 12 12 12 11 11 10 8 6 6 4 3 3 1 2 1 3 5 3 5 2 1 5 6 1 1 0 2 5 7 8 7 3 5 4 3 5 1 1 5 3 8 4 4 1 3 4 0 1 1 4 4 9 4 5 5 2 3 2 3 1 1 2 2 1 1 2 1 7 2 6 2 4 2 4 5 5 6 6 7 7 7
15 14 14 13 12 11 10 13 12 12 12 11 9 7 6 5 4 3 3 3 1 2 3 5 4 2 3 2 3 3 1 1 1 2 3 4 4 3 5 6 4 4 5 4 2 2 3 6 7 3 2 3 2 1 0 1 2 2 1 3 2 4 0 5 1 2 2 0 1 0 1 2 1 6 6 4 4 1 2 3 3 4 4 4 4 4 6 9
14 14 14 13 12 11 13 13 12 12 11 10 8 6 5 5 4 4 2 3 3 2 3 4 3 1 2 1 5 4 2 1 1 3 4 4 5 5 4 3 3 3 3 4 4 3 3 7 5 6 0 4 4 2 3 5 1 1 7 3 2 2 2 2 2 2 1 0 2 1 3 7 8 11 5 1 4 1 1 3 4 5 4 4 4 5 6 4
14 13 13 13 12 13 14 13 12 12 11 9 8 7 6 4 4 3 3 2 3 2 4 4 2 1 2 2 3 2 1 1 2 4 2 0 5 1 3 4 4 2 2 4 3 3 5 1 7 6 2 4 2 0 4 2 4 4 1 4 1 2 3 2 0 2 4 1 2 1 3 7 5 1 3 4 1 2 3 5 5 5 5 5 4 5 7 8
14 13 13 14 13 13 13 13 12 11 11 10 9 8 5 5 4 3 2 3 2 3 3 2 1 2 2 2 2 4 2 2 2 0 1 3 4 3 1 3 7 6 4 5 4 2 4 5 7 3 1 1 2 4 3 3 4 2 4 2 2 4 3 5 1 0 4 1 4 4 1 8 8 9 4 3 2 3 6 6 5 5 5 5 5 6 7 10
15 13 14 14 14 14 14 12 12 12 11 11 9 6 6 4 3 3 2 2 4 3 2 0 1 2 4 1 1 1 1 2 3 0 1 2 1 2 3 5 2 3 3 4 3 4 4 6 7 2 2 4 7 7 4 3 1 4 2 1 2 0 4 4 0 1 1 1 4 2 5 4 3 4 4 3 2 1 3 5 5 6 6 6 6 6 6 7
16 14 14 14 14 14 13 11 11 12 12 11 9 7 4 4 5 6 6 4 2 2 1 1 1 0 3 1 0 0 1 1 1 0 2 2 1 6 6 4 2 4 5 3 3 3 5 5 2 2 4 5 2 6 7 1 2 3 2 1 2 2 1 2 3 1 2 1 3 3 1 6 4 7 6 4 1 3 2 5 6 5 5 6 5 6 7 8
17 15 14 14 15 14 13 12 13 13 12 10 6 6 5 8 9 7 4 3 1 1 3 2 1 1 5 1 2 3 0 1 2 3 3 1 4 4 4 3 1 5 4 3 4 3 2 2 2 5 2 1 2 4 8 10 9 6 2 1 1 1 2 3 1 1 0 2 3 1 2 10 12 10 10 5 1 1 6 7 7 7 6 6 5 5 7 8
19 17 15 14 15 15 15 14 15 14 13 11 8 7 8 8 4 3 4 1 2 3 2 3 4 6 4 7 1 3 1 1 3 2 1 1 2 3 4 4 5 6 2 3 1 3 3 5 4 4 6 4 8 8 9 5 6 8 10 6 4 5 4 2 4 2 0 1 2 3 6 7 9 10 12 3 2 1 6 5 7 8 8 7 7 7 6 8
20 19 17 16 15 15 16 16 15 15 15 9 6 4 2 3 2 2 1 2 1 2 1 3 3 2 1 3 5 0 0 1 5 4 0 1 1 3 5 2 3 5 5 5 1 2 1 6 7 9 8 8 6 4 4 3 6 5 4 4 4 5 1 2 2 1 0 1 3 4 5 5 11 11 11 13 1 4 6 9 9 8 8 8 7 8 9 9
20 20 18 16 14 15 17 16 15 14 12 1 4 3 5 8 9 4 3 3 1 1 1 1 3 2 0 1 0 5 6 2 2 1 0 0 1 6 1 2 2 3 1 1 5 0 3 5 8 7 6 7 5 7 8 8 4 6 5 5 1 1 2 0 0 2 2 1 1 1 2 8 11 11 12 9 5 10 10 11 10 11 9 8 8 10 10 12
19 19 18 16 15 16 16 16 16 13 8 2 1 2 1 3 1 2 6 2 1 0 1 1 3 2 1 2 1 1 4 4 2 1 1 1 1 5 2 4 4 8 0 2 4 3 3 10 8 5 4 9 6 5 4 6 5 3 5 3 3 3 2 3 1 2 3 1 5 1 4 9 11 11 11 8 10 7 5 5 7 6 8 8 8 10 10 7
19 18 18 17 16 16 16 16 14 12 5 4 4 0 1 1 0 0 4 3 2 1 2 1 3 2 2 3 1 1 2 3 6 2 2 1 2 1 5 4 5 4 1 3 9 5 3 6 7 5 7 9 3 4 8 7 6 6 5 4 6 2 3 2 3 1 3 2 2 1 5 11 7 7 11 10 7 7 6 7 9 8 10 12 11 8 7 9
19 18 18 17 17 17 17 16 14 8 3 3 1 5 0 1 2 3 2 2 3 1 1 0 1 2 3 4 3 3 3 1 4 7 3 3 6 2 5 3 5 5 8 6 8 10 6 1 0 9 5 9 6 1 5 5 2 1 3 3 3 2 2 2 2 0 1 1 2 2 4 8 3 5 5 2 3 4 5 5 6 9 9 9 8 9 8 10
19 18 18 17 16 17 16 15 7 4 4 1 4 5 3 2 1 2 4 1 3 1 1 1 2 1 2 1 1 1 1 2 0 0 1 4 4 4 3 1 4 4 4 3 4 3 3 1 4 8 4 4 6 3 4 8 1 0 4 6 5 5 6 0 1 2 3 2 4 2 3 3 3 7 8 8 8 9 3 5 9 6 4 4 7 10 6 7
19 18 19 19 17 18 18 9 4 5 7 5 4 2 3 2 0 1 6 3 2 1 2 4 1 3 2 0 2 2 3 1 1 1 1 2 3 3 2 1 1 7 3 5 6 3 3 1 1 6 7 4 5 5 5 6 6 3 4 4 3 6 6 6 4 3 0 1 2 2 2 5 6 4 4 4 7 11 9 4 8 7 7 5 7 7 7 7
19 18 19 18 19 19 11 5 4 8 5 5 5 3 3 1 0 1 3 4 2 4 5 1 1 1 2 1 3 3 5 4 0 2 2 3 1 1 5 4 2 4 3 2 2 3 2 1 4 4 5 5 5 4 4 9 8 5 1 5 7 7 7 5 5 2 1 1 1 4 3 1 7 8 5 5 6 10 9 9 8 7 7 7 6 6 6 7
19 19 18 18 19 17 0 5 10 8 4 1 4 6 3 2 1 2 4 4 3 4 4 2 1 2 1 1 5 2 1 2 4 3 0 2 1 3 3 6 6 7 2 4 8 2 2 4 4 5 2 4 7 4 4 6 7 2 2 5 4 6 4 5 5 5 0 1 5 4 1 0 4 8 4 3 3 5 7 7 7 8 7 6 6 5 4 4
20 19 19 18 19 15 3 7 7 6 2 3 4 5 5 3 4 6 4 2 0 3 3 5 4 1 2 1 2 2 0 4 2 1 2 2 4 2 2 4 6 7 3 2 7 1 2 2 4 5 6 6 2 1 1 5 4 1 6 7 7 7 6 4 4 4 1 1 4 3 1 2 8 7 5 3 1 7 8 6 5 5 5 5 5 5 5 4
19 19 19 19 13 10 4 2 4 1 3 4 4 6 5 3 3 3 3 6 4 2 0 0 3 6 2 8 0 3 2 2 1 0 2 3 2 5 3 3 5 5 2 5 6 4 1 4 4 3 2 2 4 2 1 2 1 9 4 7 6 8 4 3 6 2 3 1 5 3 4 1 4 5 5 3 4 4 2 2 2 3 4 4 2 2 3 3
19 19 19 18 10 5 2 6 5 2 4 4 5 6 5 6 4 4 5 7 4 1 2 2 4 4 9 11 6 2 3 1 1 3 3 1 2 4 2 4 4 6 4 4 2 4 1 1 1 0 3 3 3 5 5 3 4 4 3 4 6 4 6 4 5 5 1 5 4 1 1 0 6 5 4 6 5 4 2 3 1 4 5 7 6 7 7 5
19 18 18 13 3 4 5 4 4 5 5 5 6 6 7 4 2 7 4 1 3 6 5 5 2 6 14 8 5 6 7 2 0 4 9 5 6 8 8 9 6 6 2 5 5 1 1 2 1 3 3 6 3 9 5 2 4 5 6 7 6 2 4 2 3 2 4 5 1 3 1 1 8 10 7 8 8 5 6 5 3 2 6 7 7 8 6 5
17 16 16 10 5 5 3 0 5 5 4 3 6 4 5 6 8 9 2 5 2 4 6 3 6 8 9 8 7 3 1 7 2 1 4 1 6 3 1 2 4 6 9 4 4 2 4 2 1 1 2 3 5 10 2 1 1 4 8 7 6 2 1 2 2 1 5 5 4 1 1 3 4 9 11 15 9 4 5 6 7 5 5 8 8 7 8 7
19 18 11 8 5 2 2 5 4 7 6 2 7 5 5 5 9 5 5 2 1 2 5 3 4 4 12 11 8 9 5 1 6 2 2 5 6 7 6 3 4 1 7 2 8 7 4 4 6 7 2 3 1 3 10 8 9 7 1 7 8 8 5 3 3 4 5 4 3 3 1 6 3 2 1 4 5 5 5 5 5 4 7 8 6 7 6 5
17 15 10 8 4 0 4 4 4 5 6 5 6 8 11 12 6 9 8 4 1 2 3 1 9 9 4 4 0 2 3 2 2 6 3 7 8 6 11 11 3 5 3 9 4 3 9 4 3 2 1 3 8 1 4 6 5 0 3 5 5 6 6 1 4 3 1 0 1 1 5 4 4 1 6 5 5 6 4 4 3 4 4 4 5 3 2 1
12 8 10 5 4 2 3 4 3 3 7 6 8 8 14 11 4 3 6 5 2 5 5 6 4 6 1 2 1 5 2 4 4 4 3 6 4 10 5 2 7 9 10 10 4 5 3 4 1 6 3 2 1 0 0 2 8 4 4 4 4 2 10 7 1 1 1 4 6 2 7 6 8 8 5 2 3 5 3 1 0 2 3 3 1 3 3 2
6 9 8 5 3 3 4 4 4 4 4 6 10 12 9 1 2 5 4 8 7 14 8 11 5 7 7 7 6 8 4 5 3 4 5 2 3 5 5 7 5 5 5 9 1 2 9 3 2 3 1 1 0 1 2 5 2 9 2 7 2 2 5 5 3 2 4 3 7 2 8 5 2 7 5 2 0 3 2 1 1 1 1 3 1 1 2 3
3 4 3 4 1 4 3 4 5 4 4 5 11 14 2 4 1 2 1 6 5 3 6 7 2 6 7 7 7 9 3 7 9 3 5 7 4 7 8 3 5 11 9 1 4 3 7 3 1 1 0 4 2 0 4 2 3 3 3 4 5 2 1 2 4 1 1 2 5 3 2 4 6 7 4 1 6 7 5 1 1 4 3 2 3 1 2 2
2 3 5 1 1 4 3 4 3 6 6 7 11 11 1 0 0 2 4 5 5 5 7 4 5 3 5 9 5 5 9 9 8 7 8 4 5 4 14 8 4 4 6 5 2 1 1 5 2 1 2 1 1 3 9 3 3 2 3 4 0 3 2 4 6 3 5 4 2 7 3 6 7 6 9 8 8 9 5 1 2 2 4 3 3 1 4 6
3 3 2 0 2 1 3 3 5 4 4 14 13 3 0 2 1 2 1 3 3 4 4 6 2 6 3 3 7 9 5 4 11 8 5 3 8 1 6 6 6 6 8 2 2 3 4 1 3 1 2 2 3 4 9 10 9 3 3 2 0 2 2 5 1 3 4 5 5 2 6 5 7 7 5 9 6 4 6 6 4 5 5 4 2 2 3 4
1 2 2 1 2 1 4 5 5 8 10 3 4 2 0 1 1 0 2 2 2 3 3 5 7 6 6 5 1 2 3 4 5 6 4 2 9 5 7 9 7 7 4 2 4 3 3 2 7 2 2 4 5 1 1 6 5 8 11 11 12 9 4 4 7 3 2 3 4 4 10 4 9 2 6 4 6 6 7 8 8 6 5 4 2 1 1 2
2 4 2 4 3 2 7 10 4 1 2 4 6 2 1 1 2 1 1 1 4 2 2 5 2 4 4 6 6 7 6 5 4 5 4 7 6 5 2 7 6 12 12 9 9 2 4 3 8 4 7 7 1 0 2 1 1 2 3 7 7 3 6 4 7 6 3 1 4 3 1 10 7 2 3 5 4 4 7 7 8 6 5 5 2 0 1 3
1 1 0 3 4 2 5 4 2 2 2 2 1 2 1 1 2 3 2 1 1 1 1 1 5 5 2 3 2 4 10 5 10 10 5 8 3 5 4 7 10 11 8 2 5 4 4 4 4 1 2 3 2 1 1 0 1 1 3 1 6 10 7 7 3 6 8 2 1 1 1 8 4 1 5 5 4 2 2 6 10 5 5 3 1 0 1 2
1 2 2 1 2 1 4 9 12 9 3 1 2 1 1 1 2 2 1 1 2 1 3 2 0 1 3 1 4 8 7 4 4 6 3 2 3 1 4 8 14 8 11 9 12 8 5 3 8 3 2 3 4 2 2 2 1 4 4 5 4 3 5 2 5 1 2 9 8 9 8 7 3 3 1 1 0 4 6 4 3 9 4 2 2 2 2 2
3 1 2 4 3 2 3 1 1 4 2 5 4 4 2 1 1 1 3 3 1 2 2 1 1 3 2 1 3 2 7 6 3 6 2 1 3 1 4 7 8 6 2 1 3 8 5 5 9 7 10 9 8 7 12 13 13 3 0 2 5 9 7 5 4 1 5 3 7 5 8 4 3 2 3 1 1 2 2 3 2 1 3 3 2 3 2 1
1 2 1 2 2 1 2 3 2 2 5 5 6 2 2 2 1 3 2 1 2 1 1 2 1 4 3 3 3 4 8 2 1 3 8 4 2 1 1 5 6 3 2 4 7 9 3 1 6 10 14 14 15 8 2 9 5 7 5 8 4 4 6 4 5 4 10 5 7 8 9 4 3 1 1 5 5 9 7 5 8 6 4 4 4 4 3 3
1 2 3 2 2 3 2 4 5 2 5 5 6 3 4 3 1 0 2 1 2 3 1 1 2 5 2 5 5 5 4 6 1 3 6 7 1 1 4 3 3 4 3 4 5 6 3 4 8 8 11 11 3 3 5 8 7 7 9 9 10 10 10 9 10 14 8 7 8 9 9 8 12 4 6 7 7 6 6 7 7 4 3 4 5 1 0 1
2 2 2 1 1 4 5 5 8 6 1 2 1 4 8 6 2 4 1 1 0 0 3 1 1 0 7 10 6 4 4 4 3 4 2 1 4 0 2 2 2 3 2 1 1 3 5 7 5 5 8 7 2 3 6 6 9 10 13 12 12 12 10 13 15 17 6 9 17 11 8 9 12 10 11 13 12 12 13 13 8 4 2 3 0 3 4 3
1 1 1 2 1 1 3 2 10 7 6 6 1 4 7 12 11 4 4 1 1 1 1 3 4 3 3 1 3 5 7 6 7 3 3 3 4 3 2 2 1 3 3 1 2 1 3 5 5 5 8 8 4 5 4 8 5 3 8 12 15 15 16 17 18 18 15 13 14 9 11 17 15 10 13 12 11 9 5 1 1 1 3 2 1 3 3 3
1 1 0 1 2 2 1 3 8 8 5 8 5 6 5 8 12 4 1 5 4 3 1 2 2 4 3 3 3 4 5 0 1 6 3 6 0 1 4 4 4 1 0 5 4 3 5 5 5 4 4 6 5 3 2 5 6 6 5 7 10 13 16 19 18 19 14 13 10 7 4 12 7 6 8 3 4 2 1 2 5 4 4 3 4 4 3 4
1 0 0 3 2 1 1 0 7 7 5 5 5 4 4 8 9 8 3 2 4 5 4 8 5 2 1 3 2 2 2 3 3 2 9 6 8 7 6 4 7 7 4 3 1 1 4 3 2 3 5 5 2 8 7 2 1 2 4 5 9 12 13 13 14 9 7 9 12 10 12 16 8 9 5 2 4 6 7 7 3 4 5 5 6 5 5 4
1 0 1 1 1 1 2 1 1 6 6 7 6 5 5 8 2 4 0 1 1 3 7 8 7 6 1 4 8 6 5 5 4 3 5 3 4 4 2 3 7 8 7 6 0 5 5 6 5 4 6 6 1 4 5 5 3 3 9 13 19 17 15 12 10 7 12 15 14 10 15 19 5 9 7 3 7 8 9 7 3 3 4 5 5 6 6 4
Wind_Direction
177 168 170 169 170 169 170 175 184 186 186 189 185 182 178 181 177 177 172 171 173 167 159 135 126 146 37 9 358 18 50 92 75 94 133 238 185 162 108 119 135 135 126 95 93 107 16 22 77 345 42 56 318 100 276 56 38 57 87 113 94 197 138 205 174 189 203 128 222 191 207 130 201 199 207 89 32 68 359 233 308 297 245 202 256 250 245 169
170 165 161 164 170 167 172 179 182 183 184 188 184 181 181 175 180 177 170 166 164 160 136 130 141 103 55 25 12 61 89 54 108 213 215 158 140 152 134 129 137 139 128 86 124 124 122 43 51 53 76 61 321 59 357 230 79 95 117 91 202 180 233 155 199 194 122 253 165 189 189 177 213 147 228 118 285 44 118 276 9 304 297 322 332 273 139 149
172 167 155 159 168 171 172 178 179 178 185 188 185 180 177 177 169 177 163 158 160 143 141 167 120 84 66 38 44 72 84 61 48 245 243 167 151 148 154 139 130 147 129 148 191 140 155 182 176 90 10 97 2 164 38 276 58 213 121 174 251 205 227 213 167 198 200 135 148 161 197 154 247 140 82 203 178 60 192 204 315 270 246 244 304 131 146 152
171 170 161 161 170 173 172 176 177 176 181 183 182 179 155 165 187 177 168 158 155 152 178 159 113 93 79 50 58 94 70 93 230 236 272 160 161 141 154 143 118 110 91 67 138 104 110 90 75 92 55 71 312 30 132 267 98 228 86 161 223 190 124 223 184 219 201 161 140 144 89 141 244 205 156 167 113 263 267 233 183 203 218 197 198 161 152 157
170 169 169 166 174 174 173 175 172 171 178 175 173 176 160 192 192 175 166 166 162 169 185 169 120 94 69 51 75 94 104 64 257 243 274 184 158 141 139 124 114 90 104 140 91 63 75 106 93 43 85 158 3 26 301 342 119 98 203 199 171 138 62 315 190 189 147 194 119 133 134 206 97 64 122 153 167 223 212 231 215 213 177 156 168 179 162 167
165 167 168 167 176 175 176 175 169 169 171 178 179 176 186 192 183 173 167 163 171 178 182 165 117 82 67 76 90 82 99 145 271 355 263 170 155 139 127 113 111 112 114 68 102 102 96 26 92 107 25 81 172 135 267 158 335 189 320 311 197 196 129 338 318 293 134 133 141 143 202 102 144 182 204 181 200 233 228 247 226 210 189 173 149 149 168 175
164 166 168 168 175 178 176 177 176 172 178 176 187 184 186 180 181 166 160 160 171 186 181 143 99 84 86 89 80 102 187 257 216 243 233 139 136 131 114 100 90 89 87 96 96 109 90 100 94 161 93 68 301 123 224 291 15 105 177 69 182 189 33 301 275 291 204 136 183 187 83 136 146 187 104 206 244 218 126 256 256 180 134 147 147 177 173 185
164 165 168 164 171 179 179 179 175 170 181 180 181 183 177 177 160 158 146 155 170 186 175 102 85 82 104 89 108 299 96 262 193 288 117 98 98 107 100 70 91 87 111 148 136 119 119 126 149 147 82 148 211 137 265 100 14 109 171 198 143 102 305 330 53 69 114 90 330 124 131 289 183 171 81 248 249 256 289 45 87 125 135 155 166 178 189 192
162 164 163 163 172 177 181 180 174 171 177 177 173 173 174 168 152 147 150 132 140 135 109 89 84 85 115 94 120 110 243 239 173 149 122 99 110 106 123 88 77 112 121 82 106 154 130 230 112 178 222 165 169 115 248 131 292 160 159 115 46 61 327 334 91 45 35 120 61 86 356 320 244 220 250 241 262 318 226 74 112 119 146 175 188 186 184 193
161 162 161 165 174 176 186 175 169 172 176 174 165 167 169 158 148 122 137 105 61 25 64 81 84 117 96 90 69 173 254 281 349 59 107 120 103 97 51 118 107 117 116 352 94 113 153 193 167 190 122 82 131 97 224 139 216 137 101 97 97 318 349 2 115 1 332 108 319 147 267 294 336 94 282 342 292 317 86 102 135 146 182 196 193 196 203 195
161 160 160 166 172 179 186 160 165 171 182 171 165 170 165 158 137 119 89 69 47 1 58 68 85 146 98 92 129 217 210 79 43 15 123 125 109 109 156 133 150 95 105 147 191 177 158 149 150 106 40 222 126 327 132 217 122 84 136 107 33 350 58 4 67 8 1 50 34 136 173 327 308 101 229 257 321 286 148 130 161 179 197 201 207 204 209 218
160 157 161 164 169 174 155 150 159 180 178 169 168 166 170 156 137 124 88 59 9 37 38 59 64 121 83 85 153 214 272 227 22 27 110 118 108 170 166 152 148 151 141 165 234 225 158 155 132 116 189 129 106 121 72 134 70 156 183 122 316 8 57 5 91 331 359 86 30 347 66 300 194 228 249 243 338 81 136 161 201 219 229 236 232 227 220 222
160 160 163 164 164 165 152 147 166 181 173 164 163 166 161 148 141 105 96 63 40 51 53 101 75 89 97 118 243 234 248 249 52 101 54 66 93 46 76 109 126 140 161 144 197 206 145 135 119 93 332 101 158 128 170 77 8 119 42 122 38 11 342 316 309 337 92 253 24 309 266 268 262 250 270 294 355 18 126 234 229 233 236 243 239 229 240 241
162 161 161 160 158 153 149 153 169 184 169 167 166 161 148 136 123 97 73 77 32 72 102 89 91 84 128 233 267 245 247 124 124 96 13 279 91 51 60 43 81 70 42 99 77 101 106 84 95 117 122 100 141 324 69 353 18 137 250 57 128 106 245 308 10 313 142 354 10 112 196 285 280 276 280 298 318 170 234 246 247 241 244 237 235 238 239 243
159 161 158 155 153 153 153 158 168 176 173 172 166 149 130 138 96 95 91 67 105 120 108 102 92 111 92 269 299 291 201 108 71 42 287 132 117 68 40 49 54 54 87 104 125 68 113 100 89 57 106 288 101 84 30 40 15 27 81 278 328 159 275 296 27 88 168 340 48 89 316 245 260 272 279 336 1 176 235 256 266 263 254 246 235 236 242 243
158 158 157 155 156 156 157 166 174 177 175 169 157 130 115 118 108 101 87 109 151 119 68 104 25 117 94 312 211 42 56 116 175 266 294 122 108 134 156 116 125 34 53 36 64 95 46 82 73 171 129 36 63 95 65 67 342 359 99 244 215 84 253 348 145 330 333 120 8 152 219 321 323 252 274 315 44 72 239 277 267 264 256 248 243 238 244 261
156 154 153 156 158 161 171 169 167 176 169 168 136 128 129 146 134 106 98 103 62 120 130 179 152 125 154 281 3 146 223 236 323 44 8 22 119 146 105 69 54 65 63 82 29 60 1 64 287 41 25 123 155 103 88 353 306 246 32 148 211 168 244 259 307 359 13 99 206 9 204 236 248 282 289 306 69 6 293 277 281 265 256 249 237 234 241 242
155 155 155 158 162 169 171 162 173 169 168 160 136 147 144 145 132 109 81 62 9 135 91 118 115 89 260 32 178 223 174 125 92 154 63 316 110 76 91 99 39 90 81 79 359 89 329 70 32 183 26 50 133 105 147 206 187 194 158 102 275 285 217 228 126 232 22 23 171 351 259 275 275 282 282 269 227 258 266 264 277 284 275 270 253 245 240 244
160 161 158 163 169 168 164 168 171 168 164 160 159 152 132 118 115 91 85 12 97 77 111 198 152 163 207 207 191 75 104 180 115 76 117 49 20 99 63 80 95 119 94 86 247 118 351 76 40 75 167 161 196 179 177 205 158 182 179 177 145 155 216 214 240 279 182 156 230 219 228 265 283 291 291 290 129 192 267 288 282 271 267 265 256 253 248 239
161 162 163 168 166 165 166 168 169 167 165 161 155 132 73 89 44 45 351 357 240 176 157 174 126 172 56 22 121 212 251 45 123 343 357 289 126 69 38 66 36 61 109 163 128 99 105 136 180 194 195 190 196 170 163 180 156 111 79 102 176 168 273 274 272 277 318 104 244 236 269 273 276 271 276 283 307 301 282 275 265 259 260 259 258 249 248 246
162 163 167 167 164 165 168 168 171 169 164 85 159 144 157 174 136 204 169 248 174 232 43 314 161 138 97 135 276 150 120 357 62 56 183 135 199 120 272 49 75 126 5 182 137 238 68 158 226 205 197 185 157 122 108 72 46 135 139 145 202 205 147 222 111 345 324 138 287 39 318 272 261 273 269 277 325 278 259 261 263 262 254 256 255 261 249 247
162 162 166 165 162 168 167 169 170 159 127 114 121 167 260 193 135 196 119 160 236 172 91 175 104 53 336 194 293 126 68 93 64 55 326 116 82 140 268 109 142 169 174 114 59 107 173 201 218 193 126 98 95 85 70 117 110 52 143 161 104 254 240 294 294 344 331 90 266 19 340 280 274 267 270 256 256 254 245 223 246 254 267 257 253 255 266 280
160 159 165 165 167 166 167 169 166 147 133 147 201 174 228 219 182 309 96 87 73 327 64 90 129 82 13 327 271 295 99 139 174 245 221 63 97 151 139 114 132 130 90 181 160 141 189 271 232 156 138 110 60 78 91 72 65 109 95 116 200 240 130 254 283 349 359 76 324 331 330 285 284 283 268 268 244 265 263 252 254 235 248 252 249 251 265 270
161 160 166 164 164 166 166 164 134 124 184 199 146 208 237 119 131 131 64 155 164 294 37 300 133 151 164 142 217 106 120 210 119 191 306 113 144 175 108 135 121 127 185 188 163 171 187 266 310 135 145 137 136 112 120 111 138 354 123 129 124 158 233 149 199 17 323 59 65 2 305 300 327 333 331 323 333 310 288 325 277 257 243 265 291 287 249 258
159 160 163 164 164 162 165 145 151 185 114 93 281 247 227 216 113 142 95 58 20 17 199 18 110 241 187 78 9 165 233 80 321 221 241 124 137 93 173 169 111 195 159 168 118 143 257 327 132 107 112 93 117 149 195 132 133 325 227 171 192 175 142 283 33 112 23 337 6 57 347 317 303 288 246 288 343 324 293 331 285 284 297 282 265 260 273 259
159 161 162 162 162 164 153 153 197 120 145 196 214 238 166 180 107 149 99 67 203 254 35 195 150 215 135 273 32 146 108 173 294 227 85 207 163 133 105 82 106 201 151 137 163 173 196 6 110 155 141 129 132 168 213 147 165 129 248 172 156 144 126 123 115 83 47 146 354 6 158 266 325 315 279 319 327 301 309 294 280 307 298 286 269 277 273 261
159 161 162 162 167 159 154 209 135 128 145 259 226 163 180 148 223 127 64 13 277 180 146 281 69 219 45 219 141 116 125 242 88 42 60 337 132 332 131 194 43 30 152 164 57 246 97 70 74 76 96 120 137 193 220 147 126 210 254 120 114 114 132 158 113 115 165 246 295 45 98 220 305 285 274 315 325 299 309 302 317 311 311 307 297 281 273 270
160 162 161 165 171 171 322 124 141 173 203 221 127 140 127 168 95 51 79 105 252 129 155 225 226 346 84 333 58 146 217 172 104 226 83 293 105 14 96 199 162 165 175 107 188 276 122 160 152 141 88 116 177 208 184 143 131 222 210 132 128 135 140 118 92 105 118 46 281 333 341 292 256 267 314 3 318 308 291 295 305 310 314 311 314 320 312 275
165 163 164 167 171 184 117 157 170 175 230 157 139 113 110 87 81 119 127 147 255 86 299 117 262 61 16 356 61 41 40 7 137 233 312 56 31 154 107 202 124 116 32 145 173 238 346 157 213 146 137 186 227 335 130 144 114 241 128 95 94 80 73 95 102 82 352 69 276 227 9 205 281 275 328 336 284 268 266 280 284 289 297 302 321 337 343 344
167 163 166 167 166 203 193 104 189 233 114 133 137 115 77 73 110 116 108 234 129 192 93 181 150 195 130 146 286 3 103 342 91 354 36 142 341 40 23 147 117 98 74 26 79 186 234 319 176 93 179 178 128 41 124 12 115 130 120 79 39 40 30 28 61 91 65 4 252 254 304 154 297 273 229 130 213 213 240 298 288 308 326 325 305 283 303 321
166 167 168 167 182 179 155 166 230 183 150 136 131 102 91 44 140 110 184 223 62 63 40 160 167 86 142 152 178 312 87 350 104 148 110 359 31 52 145 51 46 54 57 14 47 329 22 3 89 235 88 110 101 77 24 71 88 122 99 127 77 354 10 29 345 34 116 269 261 273 255 35 177 289 309 235 287 245 188 147 5 338 327 324 325 334 336 339
170 172 170 166 179 172 201 204 185 139 151 160 117 114 122 121 345 187 204 53 145 194 162 181 249 155 176 175 119 152 144 45 53 154 152 173 156 150 201 164 162 87 226 180 206 349 38 124 233 357 193 124 127 86 355 7 356 83 89 79 110 235 34 292 10 280 213 197 244 345 172 352 242 234 267 299 273 259 227 217 229 285 309 315 319 322 322 321
173 175 163 170 176 190 241 206 134 144 124 125 92 73 115 121 197 210 184 188 252 136 221 108 174 173 163 131 172 154 342 148 226 143 100 72 141 241 327 156 191 137 189 204 108 110 272 285 20 316 72 220 143 127 138 143 331 105 134 138 106 117 72 232 279 259 309 295 272 303 293 267 251 280 244 243 251 212 231 230 238 243 272 293 300 318 327 329
180 168 164 177 185 208 159 140 154 134 120 108 115 88 56 151 222 182 160 207 168 5 82 123 99 83 156 173 186 168 134 280 156 182 123 158 146 181 236 263 145 107 78 164 157 188 140 296 248 145 231 158 158 159 174 158 162 203 58 146 176 142 157 205 197 204 216 204 286 278 76 232 120 243 234 220 246 276 276 270 263 248 248 264 286 297 302 310
174 169 162 171 181 318 145 149 161 150 121 111 125 160 172 210 199 166 181 181 233 60 58 142 126 138 187 16 155 219 128 143 188 123 157 145 195 191 188 199 214 114 146 126 254 104 203 204 277 309 272 150 165 237 117 100 43 336 161 84 90 217 140 122 207 140 208 314 8 255 216 187 173 297 280 266 304 296 302 289 323 301 298 318 333 328 303 290
149 164 163 150 185 174 146 153 131 119 135 122 142 177 200 194 199 182 194 142 125 118 120 61 63 135 157 56 331 202 312 110 208 124 207 197 202 192 195 188 184 195 166 176 168 170 42 235 357 309 53 94 136 171 163 133 175 221 105 199 207 122 98 96 62 14 89 43 257 165 314 289 300 314 284 348 323 290 342 324 346 291 323 342 346 321 327 332
154 149 163 147 161 156 146 139 136 105 113 155 166 199 202 11 188 145 130 148 175 133 135 134 235 151 176 197 173 196 210 83 178 131 209 138 287 201 195 222 174 180 232 126 254 214 152 219 350 67 150 351 202 122 105 34 143 96 181 230 189 138 124 125 203 352 63 186 265 93 226 287 30 273 328 339 149 299 286 234 294 288 9 79 21 329 322 354
147 121 72 118 145 149 127 147 125 78 93 164 204 205 25 136 237 123 213 102 110 132 128 158 218 97 199 148 203 179 226 168 186 173 184 181 237 190 184 184 198 189 189 294 153 231 120 88 331 357 77 285 360 148 47 18 40 140 198 192 111 214 203 324 89 240 162 267 269 298 280 256 195 242 332 276 189 232 248 253 108 104 75 97 89 31 16 22
82 98 125 156 265 169 147 149 106 117 125 190 216 211 265 254 110 155 215 150 131 123 150 214 130 230 143 186 168 173 170 184 166 195 149 231 203 199 185 168 211 189 163 152 132 152 87 145 282 339 136 286 8 98 195 195 348 39 87 82 99 101 159 128 198 175 127 240 58 289 41 245 202 221 201 233 214 212 189 96 195 152 151 155 152 125 53 44
69 113 126 94 209 221 139 129 97 129 163 202 206 208 182 96 203 262 300 153 159 119 205 161 233 130 160 193 158 167 215 172 175 193 194 203 200 302 196 205 170 181 164 142 135 163 169 118 172 291 303 85 178 198 216 160 147 68 86 176 122 35 223 108 27 126 181 171 186 226 314 281 259 215 191 225 220 199 172 170 193 177 172 173 180 128 59 25
270 99 101 102 120 26 99 101 128 189 200 336 52 145 342 189 190 328 4 61 102 338 148 149 157 158 175 114 215 150 147 138 177 183 191 225 193 212 215 189 139 155 126 73 111 188 107 183 180 125 56 230 238 275 204 168 181 165 164 187 174 129 140 161 251 36 101 128 225 137 254 277 271 186 207 224 242 181 222 164 168 179 177 185 194 253 35 17
26 96 156 17 8 100 148 152 205 89 109 141 191 157 177 100 70 185 53 344 79 122 7 98 10 126 148 170 155 165 140 168 178 186 235 201 220 206 287 136 146 147 152 182 180 234 140 123 104 171 203 193 148 3 254 289 153 180 169 218 172 174 101 123 202 233 55 281 100 155 330 266 245 229 216 223 243 226 192 168 159 176 186 180 188 263 285 234
34 188 108 37 6 107 165 161 35 138 136 237 4 40 360 40 127 219 132 316 83 83 74 85 187 125 268 131 152 155 163 186 172 199 189 213 249 194 220 157 136 159 138 128 71 211 96 101 91 331 314 318 329 313 44 122 81 341 285 132 148 201 186 176 163 177 159 158 116 353 252 255 288 260 263 268 266 266 198 169 148 171 175 176 150 283 277 304
58 360 343 84 45 104 181 179 191 195 136 58 77 113 346 168 120 108 212 196 137 111 152 154 43 338 155 122 139 173 187 158 240 197 258 200 218 44 162 166 166 164 166 198 175 196 163 253 137 131 27 346 344 343 355 346 51 210 197 196 201 91 75 124 102 67 121 217 173 130 234 267 271 314 324 43 17 159 155 199 174 151 194 215 247 264 277 284
99 354 352 317 7 64 155 305 339 132 120 145 135 139 135 29 240 172 151 179 105 147 113 211 186 148 84 170 130 105 194 179 162 222 148 195 215 40 345 161 200 180 159 322 74 160 182 172 143 156 177 183 200 193 216 213 205 180 223 172 183 160 142 130 191 126 195 272 152 172 238 254 279 349 53 68 212 164 225 194 247 216 172 185 226 247 269 277
167 146 181 18 15 29 348 70 34 111 139 152 148 211 116 113 349 330 109 83 163 98 64 125 32 90 106 123 138 161 196 265 133 188 185 215 237 336 260 334 200 199 247 127 143 141 164 139 199 190 194 206 211 208 25 85 74 187 214 150 161 168 180 137 108 111 211 200 173 229 222 234 249 246 167 192 196 170 187 226 214 213 232 232 244 238 202 182
65 104 154 177 103 206 202 149 147 210 175 183 168 155 179 148 150 7 232 121 231 153 88 74 179 145 223 146 170 181 203 190 19 109 202 176 247 231 341 117 103 16 129 93 156 91 83 184 216 207 224 225 187 150 206 147 164 196 145 183 177 171 179 169 182 217 194 88 254 228 222 224 230 212 224 210 222 226 220 205 205 229 253 214 215 230 151 94
124 273 72 308 144 191 179 213 171 166 210 166 171 142 180 156 182 164 23 330 89 323 131 332 16 273 176 176 149 158 170 181 156 214 73 20 108 344 61 4 109 313 347 113 313 150 144 199 227 162 246 243 140 180 173 169 181 184 185 172 175 182 175 184 213 226 155 193 229 231 154 219 237 177 207 204 192 198 203 208 196 184 220 248 218 76 50 36
64 21 216 344 156 302 187 115 152 155 152 175 114 164 173 178 192 182 152 119 44 240 168 181 222 189 164 137 147 165 158 159 238 198 155 163 162 131 109 35 305 0 131 71 137 183 134 236 199 171 219 239 197 177 185 176 196 158 187 188 184 176 188 196 214 221 206 220 230 232 171 219 230 187 201 211 206 201 209 164 116 114 219 211 79 97 88 66
262 107 291 10 66 53 338 149 160 155 162 174 167 204 175 187 193 150 186 149 165 249 112 169 199 170 168 137 134 146 203 83 182 176 216 133 116 140 192 184 154 353 155 166 166 255 156 256 140 144 193 250 216 175 161 201 174 202 218 199 189 191 198 203 212 222 219 238 250 258 246 266 250 166 210 220 151 134 56 189 209 216 215 209 151 130 127 109
121 84 125 117 124 253 42 52 164 166 153 172 195 179 159 192 199 178 182 157 151 161 170 193 155 109 108 147 156 206 209 131 94 186 175 163 177 211 143 237 147 155 166 140 137 155 151 243 49 104 182 279 225 171 205 139 120 205 230 187 198 196 209 221 219 218 185 213 232 237 252 254 252 138 200 142 135 165 200 221 182 193 214 190 158 145 125 113
56 293 108 92 110 301 150 292 93 155 216 197 181 165 165 196 176 127 47 331 159 164 169 149 169 127 180 169 222 207 193 161 133 117 129 109 104 99 68 140 144 152 169 163 53 141 180 151 154 154 179 234 302 160 125 108 71 289 238 217 204 205 208 215 227 230 213 203 213 214 233 242 199 177 153 177 174 202 211 212 202 220 205 191 158 139 134 131